| time (UTC) | temp C | wind direction | speed KPH | gust KPH | rain 1hr cm | rain 24hr cm | rain mn cm | humidity % | barometer mb |
| 20260504223002 | 26 | 162 | 0.0 | 0.0 | 0.00 | 0.00 | 0.00 | 63 | 1009.2 |
| 20260504221606 | 26 | 166 | 0.0 | 0.0 | 0.00 | 0.00 | 0.00 | 61 | 1009.4 |
| 20260504220059 | 26 | 155 | 0.0 | 0.0 | 0.00 | 0.00 | 0.00 | 60 | 1009.5 |
| 20260504214602 | 27 | 63 | 0.0 | 0.0 | 0.00 | 0.00 | 0.00 | 60 | 1009.6 |
| 20260504213103 | 27 | 223 | 0.0 | 0.0 | 0.00 | 0.00 | 0.00 | 60 | 1009.7 |
| 20260504211555 | 27 | 200 | 0.0 | 0.0 | 0.00 | 0.00 | 0.00 | 59 | 1009.9 |
| 20260504204633 | 28 | 221 | 0.0 | 0.0 | 0.00 | 0.00 | 0.00 | 56 | 1010.5 |
| 20260504203050 | 28 | 156 | 0.0 | 0.0 | 0.00 | 0.00 | 0.00 | 55 | 1010.6 |
| 20260504201546 | 27 | 178 | 0.0 | 0.0 | 0.00 | 0.00 | 0.00 | 57 | 1010.9 |
| 20260504200043 | 27 | 153 | 0.0 | 0.0 | 0.00 | 0.00 | 0.00 | 55 | 1011.2 |
| 20260504194548 | 27 | 173 | 0.0 | 0.0 | 0.00 | 0.00 | 0.00 | 56 | 1011.3 |
| 20260504193041 | 27 | 149 | 0.0 | 0.0 | 0.00 | 0.00 | 0.00 | 57 | 1011.5 |
| 20260504191536 | 27 | 264 | 0.0 | 0.0 | 0.00 | 0.00 | 0.00 | 55 | 1011.8 |
| 20260504190037 | 26 | 169 | 0.0 | 0.0 | 0.00 | 0.00 | 0.00 | 57 | 1011.9 |
| 20260504184532 | 26 | 244 | 0.0 | 0.0 | 0.00 | 0.00 | 0.00 | 58 | 1012.2 |
| 20260504183032 | 26 | 209 | 0.0 | 0.0 | 0.00 | 0.00 | 0.00 | 57 | 1012.3 |
| 20260504181529 | 27 | 174 | 0.0 | 0.0 | 0.00 | 0.00 | 0.00 | 56 | 1012.2 |
| 20260504180025 | 26 | 178 | 0.0 | 11.3 | 0.00 | 0.00 | 0.00 | 57 | 1012.7 |
| 20260504174524 | 26 | 165 | 0.0 | 1.6 | 0.00 | 0.00 | 0.00 | 58 | 1012.7 |
| 20260504173021 | 26 | 154 | 0.0 | 0.0 | 0.00 | 0.00 | 0.00 | 60 | 1013.0 |
| 20260504171534 | 25 | 173 | 0.0 | 0.0 | 0.00 | 0.00 | 0.00 | 59 | 1013.2 |
| 20260504081503 | 16 | 165 | 0.0 | 0.0 | 0.00 | 0.00 | 0.00 | 80 | 1014.8 |
| 20260504044541 | 18 | 162 | 0.0 | 0.0 | 0.00 | 0.00 | 0.00 | 68 | 1016.8 |
| 20260504043039 | 18 | 161 | 0.0 | 0.0 | 0.00 | 0.00 | 0.00 | 67 | 1016.8 |
| 20260504041536 | 18 | 161 | 0.0 | 0.0 | 0.00 | 0.00 | 0.00 | 65 | 1016.9 |
| 20260504040035 | 19 | 162 | 0.0 | 0.0 | 0.00 | 0.00 | 0.00 | 62 | 1016.9 |
| 20260504034540 | 19 | 163 | 0.0 | 0.0 | 0.00 | 0.00 | 0.00 | 60 | 1016.8 |
| 20260504033035 | 20 | 165 | 0.0 | 0.0 | 0.00 | 0.00 | 0.00 | 59 | 1017.0 |
| 20260504031534 | 20 | 171 | 0.0 | 0.0 | 0.00 | 0.00 | 0.00 | 58 | 1016.9 |
| 20260504030040 | 21 | 173 | 0.0 | 0.0 | 0.00 | 0.00 | 0.00 | 55 | 1016.6 |
| 20260504024533 | 21 | 173 | 0.0 | 0.0 | 0.00 | 0.00 | 0.00 | 54 | 1016.6 |
| 20260504023033 | 21 | 207 | 0.0 | 0.0 | 0.00 | 0.00 | 0.00 | 53 | 1016.5 |
| 20260504021534 | 21 | 188 | 0.0 | 0.0 | 0.00 | 0.00 | 0.00 | 53 | 1016.5 |
| 20260504020036 | 21 | 136 | 0.0 | 0.0 | 0.00 | 0.00 | 0.00 | 52 | 1016.2 |
| 20260504014536 | 22 | 183 | 0.0 | 0.0 | 0.00 | 0.00 | 0.00 | 51 | 1016.3 |
| 20260504013034 | 22 | 171 | 0.0 | 0.0 | 0.00 | 0.00 | 0.00 | 50 | 1016.1 |
| 20260504011531 | 22 | 173 | 0.0 | 0.0 | 0.00 | 0.00 | 0.00 | 52 | 1015.7 |
| 20260504010031 | 23 | 173 | 0.0 | 0.0 | 0.00 | 0.00 | 0.00 | 49 | 1015.9 |
| 20260504004530 | 23 | 147 | 0.0 | 0.0 | 0.00 | 0.00 | 0.00 | 48 | 1015.9 |
| 20260504003029 | 24 | 193 | 0.0 | 0.0 | 0.00 | 0.00 | 0.00 | 45 | 1016.0 |
| 20260504001529 | 25 | 150 | 0.0 | 4.8 | 0.00 | 0.00 | 0.00 | 39 | 1016.0 |
| 20260504000027 | 26 | 149 | 1.6 | 4.8 | 0.00 | 0.00 | 0.00 | 37 | 1016.0 |
| 20260503234541 | 26 | 167 | 3.2 | 8.0 | 0.00 | 0.00 | 0.00 | 35 | 1016.1 |
| 20260503233026 | 26 | 155 | 0.0 | 8.0 | 0.00 | 0.00 | 0.00 | 39 | 1016.1 |
| 20260503231527 | 26 | 163 | 1.6 | 8.0 | 0.00 | 0.00 | 0.00 | 38 | 1016.2 |
| 20260503230026 | 26 | 152 | 1.6 | 9.7 | 0.00 | 0.00 | 0.00 | 37 | 1016.2 |
| 20260503224523 | 27 | 221 | 3.2 | 8.0 | 0.00 | 0.00 | 0.00 | 35 | 1016.4 |